Location: Elaine Barite Prospect
(34.1431°N, 106.7922°W)
Time: 11:21:40
(UTC+00:00)

Cosmos 44 - Pass Details

Date: 13 December 2025
Orbit: 572 x 778 km, 65.1° (Epoch: 15 January)

Event Time Altitude Azimuth Distance (km) Brightness Sun altitude
Rises 12:47:08 0° 199° (SSW) 2,824 6.4 -15.6°
Reaches altitude 10° 12:49:19 10° 197° (SSW) 1,950 5.6 -15.1°
Maximum altitude 12:53:40 64° 115° (ESE) 699 3.6 -14.3°
Drops below altitude 10° 12:58:20 10° 35° (NE) 2,084 6.0 -13.4°
Sets 13:00:44 0° 32° (NNE) 3,037 6.8 -12.9°
